www.pogodaiklimat.ru

Погода и климат >> Архив погоды >> Саудовская Аравия >> Madinah


ПОГОДА в Madinah

  • Прогноз погоды в Madinah
  • Монитор погоды в Madinah
  • Климат города

АРХИВ ПОГОДЫ в Madinah

Время (UTC), дата Ветер
(напр.,м/с)
 
Видим.   Явления Облачность Т
(С)
Тd
(С)
f
(%)
Тe
(С)
Тes
(С)
Комфортность P
(гПа)
Po
(гПа)
Тmin
(С)
Tmax
(С)
R
(мм)
R24
(мм)
S
(см)
18 12.07 З 4 10 км 4/1 1350 м
[Sc diur, vesp Ac trans]
+37.8 +9.0 17 +36 +36 очень
жарко
998.7 932.1 +42.7
21 12.07 ЮЗ 3 10 км ясно +35.8 +7.0 17 +34 +34 очень
жарко
999.0 932.5
00 13.07 З 4 10 км ясно +34.6 +5.0 16 +32 +32 жарко 998.0 931.7
03 13.07 СЗ 3 10 км 4/1 1350 м
[Cu hum Ac trans]
+33.3 +2.0 14 +30 +30 жарко 998.9 932.1
06 13.07 З 5 10 км 5/0
[Ac trans Ci fib]
+34.7 -4.0 8 +31 +35 жарко 1000.5 933.3 +33.0
09 13.07 З 5 10 км 3/0
[Ci fib]
+39.2 -18.0 2 +34 +45 очень
жарко
999.6 932.8
12 13.07 СЗ 8 10 км ясно +41.9 -15.0 2 +37 +39 очень
жарко
997.0 931.2
15 13.07 З 7 10 км ясно +40.6 -1.0 7 +37 +37 очень
жарко
997.2 930.5
18 13.07 ЮЗ 8 10 км ясно +36.1 +11.0 22 +35 +35 очень
жарко
1000.6 933.2 +42.5
21 13.07 З 5 10 км ясно +34.5 +9.0 21 +33 +33 жарко 999.7 933.0
00 14.07 З 6 10 км ясно +33.5 +1.0 13 +30 +30 жарко 997.6 931.1
03 14.07 З 3 10 км ясно +31.7 +4.0 17 +29 +29 жарко 999.8 932.6
06 14.07 СЗ 2 10 км ясно +34.1 +2.0 13 +31 +42 жарко 1001.1 933.7 +31.7
09 14.07 З 4 10 км ясно +36.7 +1.0 11 +33 +49 жарко 1000.5 933.3
12 14.07 ЮЗ 5 10 км ясно +40.0 -1.0 8 +36 +44 очень
жарко
998.4 931.5
15 14.07 З 7 10 км ясно +38.5 +1.0 10 +35 +35 очень
жарко
998.5 931.3
18 14.07 ЮЗ 8 10 км ясно +35.0 +1.0 12 +32 +32 жарко 1000.0 932.7 +40.0
21 14.07 Ю 5 10 км ясно +32.8 -1.0 11 +29 +29 жарко 1000.5 933.3
00 15.07 З 4 10 км ясно +31.2 +4.0 18 +29 +29 жарко 1000.1 932.9
03 15.07 З 4 10 км ясно +30.8 +1.0 15 +28 +28 жарко 1000.9 933.3
06 15.07 З 3 10 км ясно +32.7 +1.0 13 +30 +38 жарко 1002.0 934.2 +30.0
09 15.07 СЗ 7 10 км ясно +36.3 0.0 10 +33 +39 жарко 1000.6 933.1
12 15.07 З 5 10 км ясно +38.5 -4.0 7 +34 +42 очень
жарко
998.9 931.6
15 15.07 СЗ 6 10 км ясно +38.1 -5.0 6 +34 +34 очень
жарко
998.4 931.1
18 15.07 ЮЗ 4 10 км ясно +34.1 0.0 11 +31 +31 жарко 1000.4 932.7 +36.7
21 15.07 ЮЗ 4 10 км ясно +32.3 +2.0 15 +29 +29 жарко 1001.0 933.5
00 16.07 З 5 10 км ясно +30.6 +2.0 16 +28 +28 жарко 1000.7 933.2
03 16.07 З 3 10 км ясно +29.6 +3.0 18 +27 +28 жарко 1001.9 934.2
06 16.07 СЗ 5 10 км ясно +33.0 +1.0 13 +30 +36 жарко 1002.8 934.9 +29.0
09 16.07 СЗ 4 10 км ясно +36.1 -1.0 9 +32 +47 жарко 1002.3 934.6
12 16.07 З 5 10 км ясно +38.7 -12.0 4 +34 +41 очень
жарко
999.9 932.5
15 16.07 З 6 10 км ясно +38.1 -7.0 5 +34 +34 очень
жарко
999.8 932.3
18 16.07 З 7 10 км ясно +35.3 +2.0 12 +32 +32 жарко 1000.7 933.2 +39.5
21 16.07 З 4 10 км ясно +33.0 +3.0 15 +30 +30 жарко 1001.7 934.3
00 17.07 СЗ 3 10 км ясно +31.1 +3.0 17 +29 +29 жарко 1001.1 933.7
03 17.07 штиль 0 10 км ясно +28.2 0.0 16 +26 +26 жарко 1002.7 934.7
06 17.07 З 5 10 км ясно +32.7 0.0 12 +29 +36 жарко 1003.1 935.2 +28.0
09 17.07 З 6 10 км ясно +36.7 -2.0 9 +33 +41 жарко 1001.7 934.2
12 17.07 ЮЗ 2 10 км ясно +38.2 -5.0 6 +34 +48 очень
жарко
999.8 932.3
15 17.07 З 3 10 км ясно +39.0 -8.0 5 +35 +35 очень
жарко
998.6 931.3
18 17.07 З 9 10 км ясно +35.4 +2.0 12 +32 +32 жарко 999.4 932.1 +39.0
21 17.07 ЮЗ 4 10 км ясно +33.1 +3.0 15 +30 +30 жарко 1001.1 933.7
00 18.07 СЗ 2 10 км ясно +31.6 +2.0 15 +29 +29 жарко 1000.5 933.1
03 18.07 З 3 10 км ясно +30.7 +3.0 17 +28 +28 жарко 1001.3 933.8
06 18.07 З 4 10 км ясно +33.2 +3.0 15 +30 +37 жарко 1002.4 934.8 +30.1
09 18.07 штиль 0 10 км ясно +37.6 0.0 9 +34 +63 опасность
солнечного
удара
1001.2 933.8
12 18.07 Ю 5 10 км 3/3 1350 м
[Cu hum]
+39.7 -2.0 7 +36 +41 очень
жарко
999.1 931.9
15 18.07 З 4 10 км ясно +39.7 -2.0 7 +36 +36 очень
жарко
998.5 931.4
18 18.07 ЮЗ 7 10 км ясно +35.0 +0.5 11 +33 +33 жарко 1000.5 933.1 +41.0
21 18.07 З 4 10 км ясно +33.2 +3.0 15 +30 +30 жарко 1001.6 934.3
00 19.07 СЗ 1 10 км ясно +32.0 +3.0 16 +29 +29 жарко 1000.7 933.6
03 19.07 З 2 10 км ясно +31.3 +5.0 19 +29 +29 жарко 1002.0 934.5
06 19.07 З 4 10 км ясно +33.8 +6.0 18 +32 +39 жарко 1003.4 935.6 +30.3
09 19.07 СЗ 4 10 км ясно +38.0 +1.0 10 +34 +49 очень
жарко
1002.0 934.6
12 19.07 З 7 10 км 3/3 1350 м
[Cu hum]
+39.7 -2.0 7 +36 +39 очень
жарко
1000.4 933.2

 

Местоположение метеостанции Madinah (Саудовская Аравия): широта 24.55 долгота 39.70 высота над уровнем моря 636 м.

В архиве по умолчанию представлена погода в Madinah за последнюю неделю. Архивные данные за месяц целиком и за предыдущие месяцы, начиная с января 2011 года, Вы можете получить, выбрав интересующий диапазон дат из раскрывающегося списка и нажав кнопку "Ввод!".


*Определитесь, кто Вы:
робот инопланетянин человек

Внимание! Время в таблицах - всемирное. Для получения местного времени необходимо прибавить поправку, которая в Madinah равна 3 ч.

Смотрите также архив погоды в соседних городах и на ближайших метеорологических станциях:

Погода в Yanbu (Саудовская Аравия) (172 км)
Погода в Al-Ula (Саудовская Аравия) (267 км)
Погода в Jeddah King Abdul Aziz (Саудовская Аравия) (321 км)
Погода в Makkah (Саудовская Аравия) (347 км)
Погода в Mina (Саудовская Аравия) (349 км)
Погода в Al Taif (Саудовская Аравия) (352 км)
Погода в Arafat (Саудовская Аравия) (359 км)
Погода в Al-Wajh (Саудовская Аравия) (372 км)
Погода в Hail (Саудовская Аравия) (377 км)
Погода в Shalatin (Египет) (448 км)

Пояснения к столбцам:

Ветер - указаны скорость ветра в м/с - средняя за 10 мин, порывы в срок и между сроками (в фигурных скобках) и направление, откуда дует ветер: С - северный, СВ - северо-восточный, В - восточный, ЮВ - юго-восточный, Ю - южный, ЮЗ - юго-западный, З - западный, СЗ - северо-западный.
Видимость - горизонтальная дальность видимости в метрах или километрах. При видимости от 1 до 10 км при отсутствии осадков обычно наблюдается дымка, при ухудшении видимости до 1 км и менее - туман. В сухую погоду видимость может ухудшаться дымом, пылью или мглою.
Явления - указаны атмосферные явления, наблюдавшиеся в срок или в последний час перед сроком; фигурными скобками обозначены явления, наблюдавшиеся между сроками (за 1-3 часа до срока); квадратными скобками обозначены град или гололедные отложения с указанием их диаметра в мм.
Облачность - указаны через наклонную черту общая и нижняя облачность в баллах и высота нижней границы облаков в метрах; квадратными скобками обозначены формы облаков: Ci - перистые, Cs - перисто-слоистые, Cc - перисто-кучевые, Ac - высококучевые, As - высокослоистые, Sc - слоисто-кучевые, Ns - слоисто-дождевые, Cu - кучевые, Cb - кучево-дождевые. Подробнее классификацию облаков см. в Атласе облаков (PDF).
T - Температура воздуха - температура, измеренная на высоте 2 м над землей.
Td - Температура точки росы - температура, при понижении до которой содержащийся в воздухе водяной пар достигнет насыщения.
f - Относительная влажность воздуха - влажноcть воздуха, измеренная на высоте 2 м над землей.
Te - Эффективная температура - температура, которую ощущает одетый по сезону человек в тени. Характеристика душности погоды. При расчете учитывается влияние влажности воздуха и скорости ветра на теплоощущения человека.
Tes - Эффективная температура на солнце - температура, которую ощущает человек, с поправкой на солнечный нагрев. Характеристика знойности погоды. Зависит от высоты солнца над горизонтом, облачности и скорости ветра. Ночью, в пасмурную погоду, а также при ветре 12 м/с и более поправка равна нулю.
P - Атмосферное давление - приведенное к уровню моря атмосферное давление.
Po - Атмосферное давление - измеренное на уровне метеостанции атмосферное давление.
Tmin - Минимальная температура - минимум температуры воздуха на высоте 2 м над землей.
Tmax - Максимальная температура - максимум температуры воздуха на высоте 2 м над землей.
R - Количество осадков - Количество выпавших осадков за период времени, мм. При наведении курсора мыши на число - период времени, за который выпало указанное количество осадков.
R24 - Количество осадков - Количество выпавших осадков за 24 часа, мм.
S - Снежный покров - Высота снежного покрова, см. При наведении курсора мыши на число - состояние снежного покрова и степень покрытия местности в баллах.